Location: Newark
(34.9471°N, 136.1778°E)
Time: 14:52:59
(UTC+00:00)

METEOR M2 - Pass Details

Date: 24 February 2020
Orbit: 818 x 828 km, 98.5° (Epoch: 31 March)

Event Time Altitude Azimuth Distance (km) Brightness Sun altitude
Exits shadow 10:52:14 29° 179° (S) 1,467 ? -26.6°
Maximum altitude 10:55:02 73° 258° (WSW) 865 ? -27.2°
Drops below altitude 10° 11:00:26 10° 343° (NNW) 2,436 ? -28.3°
Sets 11:02:49 0° 345° (NNW) 3,373 ? -28.8°
